Regional Weather Roundup
Issued by NWS Goodland, KS

Home | Current Version | Previous Version | Graphics & Text | Print | Product List | Glossary On
Versions: 1 2 3 4 5 6 7 8 9 10 11 12 13 14 15 16 17 18 19 20 21 22 23 24 25 26 27 28 29 30 31 32 33 34 35 36 37 38 39 40 41 42 43 44 45 46 47 48 49 50
000
ASUS43 KGLD 191208
RWRGLD

GOODLAND FORECAST AREA HOURLY WEATHER ROUNDUP
NATIONAL WEATHER SERVICE GOODLAND KS
500 AM MST SUN NOV 19 2017

...OFFICIAL OBSERVATIONS...

CITY           SKY/WX    TMP DP  RH WIND       PRES   REMARKS
GOODLAND KS    CLOUDY    23  14  68 SW9       30.20S
HILL CITY KS   CLEAR     24  19  81 W8        30.24S
IMPERIAL NEB   CLOUDY    20  15  81 W9        30.19F
MCCOOK NEB     CLEAR     23  19  85 W9        30.21F
AKRON CO       CLOUDY    26  17  68 W13       30.15F WCI  15
BURLINGTON CO  CLOUDY    17  12  80 SW8       30.19F
LIMON CO       CLOUDY    10   8  92 NW5       30.19F
$$

...UNOFFICIAL OBSERVATIONS...

CITY           SKY/WX    TMP DP  RH WIND       PRES   REMARKS
COLBY KS       CLOUDY    21  19  93 W6        30.23R
LENORA KS        N/A     28  32 100 W7          N/A
NORTON KS      CLEAR     19  12  73 SW7       30.21
SHARON SPRINGS   N/A     25  16  69 S9          N/A
TRENTON NEB      N/A     23  32 100 CALM        N/A
YUMA CO        FAIR      19  16  86 SW9       30.17S
$$



USA.gov is the U.S. government's official web portal to all federal, state and local government web resources and services.